    C/2006 Q1 (McNaught)
Epoch 2008 June 23.0 TT = JDT 2454640.5  
T 2008 July 3.85554 TT                                  Nakano
q   2.7636629            (2000.0)            P               Q
z  +0.0000681      Peri.  344.37959     -0.95390116     -0.08801967
 +/-0.0000005      Node   199.54639     -0.08403051     -0.83945857
e   0.9998118      Incl.   59.04693     -0.28811708     +0.53624794
From 970 observations 2006 Aug. 20-2009 Apr. 15, mean residual 0".60.
   (1/a)org.= +0.000028, (1/a)fut.= +0.000687 (+/-0.000001), Q= 8.
Residuals in seconds of arc 
2006/                     080120 834  0.1+  1.0-    081130 D80  0.4-  0.5-  
060820 E12  0.7-  0.1-    080126 467  0.2+  0.4-    081130 D80  0.1+  0.5-  
060820 E12  0.3-  0.2+    080126 467  0.3+  0.4-    081202 349  0.3+  0.4-  
060820 E12  0.1+  0.0     080126 467  0.1+  0.4-    081202 349  0.5+  0.5-  
060820 E12  0.6-  0.3-    080126 415  0.2+  0.2-    081205 D88  0.2-  0.4-  
060821 E12  0.0   0.1+    080126 415  0.2+  0.2-    081205 D88  0.1-  0.4+  
060821 E12  0.1+  0.2+    080127 415  0.2+  0.5-    081205 D88  0.1+  0.3-  
060821 E12  0.3+  0.1-    080127 415  0.4+  0.0     081206 D81  0.3+  1.2-  
060821 E12  0.5-  0.1+    080201 467  0.6+  0.0     081206 D81  0.2-  0.9-  
060821 E12  0.3-  0.2+    080201 467  0.7+  0.1+    081206 D81  0.2+  0.6-  
060821 E12  0.5-  0.2+    080201 467  0.4+  0.3-    081206 D81  0.3-  1.0-  
060821 E12  0.3-  0.1-    080205 834  0.5+  0.7-    081208 204  0.1+  0.1-  
060821 E12  0.4-  0.0     080205 834  0.4+  0.8-    081208 204  0.2+  0.0   
060821 E12  0.6+  0.2-    080205 834  0.5+  0.7-    081208 J24  1.4+  0.0   
060822 844  0.4+  0.1+    080205 467  0.4+  0.3-    081208 J24  1.2+  0.0   
060822 844  0.6+  1.2-    080205 467  0.3+  0.4-    081208 J24  1.1+  0.7-  
060822 844  0.1-  0.0     080205 467  0.3+  0.5-    081214 J24 (0.7-  2.3+) 
060822 844  0.7-  0.2+    080206 834  0.5+  0.3-    081214 J24  0.4+  1.1+  
060822 I77  0.3+  0.4-    080206 834  0.4+  0.4-    081214 J24 (0.4+  2.3+) 
060822 I77  1.1+  0.4+    080206 467  0.3+  0.4-    081214 349  0.6+  0.1+  
060822 I77  0.5+  0.0     080206 467  0.3+  0.5-    081214 349  0.5+  0.3+  
060822 E12  0.2+  0.1-    080206 467  0.2+  0.4-    081214 349  0.2+  0.1+  
060822 E12  0.7+  1.5+    080208 467  0.1+  0.4-    081219 367  0.4+  0.9-  
060822 E12  0.1+  0.3-    080208 467  0.0   0.4-    081219 367  0.8+  0.1-  
060822 E12  0.0   0.6+    080208 467  0.0   0.4-    081219 367  0.8+  0.9-  
060822 E12  0.1+  0.4+    080212 834  0.5+  0.7-    081221 J52  0.6+  0.3-  
060822 E12  0.1-  0.3+    080212 834  0.8+  0.7-    081221 J52  0.5+  0.3-  
060823 673  0.2-  0.2+    080212 415  0.1+  0.3-    081221 J52  0.1-  0.2-  
060823 673  0.4+  0.0     080212 415  0.2+  0.5-    081224 204  0.1-  0.1-  
060823 673  0.1-  0.7-    080213 834  0.4+  0.7-    081224 204  0.2-  0.4-  
060823 673  0.3+  0.4-    080213 834  0.2+  1.0-    081227 A11  1.1+  1.2-  
060824 E12  0.0   0.1-    080215 808  0.0   0.4-    081227 367  0.2+  0.8-  
060824 E12  0.0   0.0     080215 808  0.1-  0.3-    081227 367  0.5+  0.5-  
060824 E12  0.4+  0.3-    080215 808  0.0   0.4-    081227 367  0.3+  0.3-  
060825 E12  0.2+  0.1+    080215 808  0.2+  0.1-    081230 A11  0.1+  0.3+  
060826 E12  0.1+  0.2+    080215 808  0.2+  0.2-    081230 A11  0.0   0.5-  
060827 E12  0.3+  0.1+    080217 834  0.4+  0.8-    2009/                   
060827 E12  0.0   0.0     080217 834  0.4+  0.8-    090107 212  0.2+  0.4-  
060827 E12  0.2+  0.1+    080217 834  0.4+  1.0-    090107 212  0.3+  0.4-  
060831 E12  0.1+  0.1+    080226 467  0.1+  0.2-    090107 212  0.0   0.4-  
060905 E12  0.1+  0.1+    080226 467  0.1+  0.2-    090107 367  0.3+  0.4-  
060912 E12  0.1+  0.3+    080226 467  0.1+  0.1-    090107 367  0.6+  0.8-  
060915 423  0.0   0.5+    080306 415  0.1+  0.6-    090107 367  0.7+  0.5-  
060915 423  0.0   0.5+    080306 415  0.2+  0.2-    090109 349  0.2+  0.2-  
060916 423  0.2+  0.5+    080308 423  0.0   1.1-    090109 349  0.0   0.1-  
060916 423  0.1-  0.4+    080308 423  0.0   1.2-    090109 349  0.1+  0.4-  
060919 E12  0.1-  0.0     080309 423  0.1+  0.6-    090110 A77  0.1+  0.0   
060921 E12  0.3+  0.2+    080309 423  0.2+  0.4-    090110 A77  0.2+  0.1+  
060927 423  0.0   0.7+    080314 834  0.8+  0.2-    090110 204  0.1-  0.1-  
060927 E12  0.2+  0.0     080314 834  0.8+  0.1+    090110 204  0.0   0.1-  
060927 423  1.3+  0.5+    080314 834  0.3+  0.5-    090117 J24  0.5+  0.4+  
060928 423  0.2-  0.7+    080314 423  0.1-  0.7-    090117 J24  0.2+  0.5+  
060928 423  0.2+  0.6+    080314 423  0.0   0.7-    090117 J24  0.3+  0.4+  
061001 423  1.6-  0.9+    080315 834  0.2-  0.3-    090117 H06  1.4+  1.3-  
061001 423  0.1-  0.3+    080315 834  0.0   0.6-    090117 H06  0.3+  0.7-  
061002 E12  0.3+  0.0     080315 423  0.0   0.6-    090117 H06  0.7+  0.1-  
061004 423  0.1-  0.6+    080315 423  0.2-  0.5-    090121 J40  0.2+  0.0   
061004 423  0.1-  0.2+    080316 844  0.2-  0.2-    090121 J40  0.3+  0.0   
061010 423  0.2+  1.0+    080316 844  0.2+  0.1+    090121 J40  0.2+  0.2-  
061010 423  0.2+  0.5+    080316 844  0.2-  0.1-    090122 204  0.2-  0.2+  
061010 423  0.1+  0.3+    080316 844  0.3+  0.0     090122 204  0.2+  0.2-  
061011 423  0.1-  0.7+    080316 844  0.4-  0.1+    090123 235  0.1+  0.3-  
061011 423  0.3+  0.6+    080316 844  0.3-  0.1+    090125 D80  0.2+  0.3-  
061012 423  0.1-  0.3+    080316 844  0.5-  1.0-    090125 D80  0.2+  0.5-  
061012 423  0.0   0.4+    080316 467  0.2-  0.3-    090125 D80  0.2+  0.6-  
061013 415  0.7+  0.3-    080316 467  0.2-  0.1+    090125 900  0.0   0.2-  
061013 415  0.2+  0.4-    080316 467  0.2-  0.0     090125 900  0.1-  0.3-  
061013 423  0.2+  0.5+    080316 415  0.1-  0.2-    090128 704 (1.9-  3.6-) 
061013 423  0.0   0.4+    080316 415  0.1+  0.1+    090128 704  1.0-  0.4+  
061014 E12  0.2+  0.1+    080317 900  1.6-  0.6-    090128 704  1.1-  0.3+  
061018 423  0.1+  0.1+    080317 900  0.8+  1.3-    090128 704  1.3+  1.6-  
061018 423  0.1+  0.5+    080318 467  0.1-  0.1-    090128 704 (2.3+  3.1+) 
061021 415  0.2+  0.4-    080318 467  0.2-  0.0     090128 900  0.3-  0.5-  
061021 415  0.1+  0.4-    080318 467  0.3-  0.1+    090128 900  0.1+  0.5-  
061022 423  0.4+  0.7+    080319 808  0.4-  0.0     090129 H06  0.0   0.3-  
061022 423  0.2+  0.7+    080319 808  0.6-  0.2+    090129 H06  0.1+  0.3-  
061022 423  0.0   0.8+    080319 808  0.4-  0.2+    090204 H10  0.2-  0.1+  
061022 415  0.3+  0.3-    080319 808  0.3-  0.2+    090204 H10  0.2-  0.1+  
061022 415  0.4+  0.1+    080319 808  0.0   0.2-    090204 H10  0.0   0.1+  
061027 423  0.0   0.6+    080326 415  0.1+  0.4-    090204 367  0.2+  0.3-  
061027 423  0.1-  0.9+    080326 415  0.2+  0.3-    090204 367  0.1+  0.1+  
061028 423  0.3-  0.8+    080330 415  0.1+  0.3-    090204 367  0.0   0.5-  
061028 423  0.0   0.5+    080330 415  0.1+  0.1+    090205 H45  0.2-  0.2+  
061031 423  0.1-  0.8+    080330 J51  0.1+  0.0     090205 H45  0.3-  0.1+  
061031 423  0.0   0.9+    080330 J51  0.1-  0.4-    090205 H45  0.2-  0.2+  
061031 423  0.3+  0.5+    080330 J51  0.6+  1.0-    090205 H45  0.3-  0.1+  
061101 423  0.1+  0.8+    080401 423  0.2-  0.6-    090205 H45  0.2-  0.2+  
061101 423  0.0   0.6+    080401 423  0.3-  0.7-    090205 H45  0.3-  0.2+  
061101 423  0.1+  0.7+    080401 D88  0.0   0.0     090206 900  0.2+  0.3-  
061101 415  0.0   0.2-    080401 D88  0.5+  1.0-    090206 900  0.0   0.3-  
061101 415  0.0   0.3-    080403 467  0.3-  0.3+    090207 349  0.3+  0.2-  
061108 349  0.3+  0.5+    080403 423  0.2-  0.4-    090207 349  0.3+  0.2-  
061108 349  0.2+  0.5+    080403 467  0.1-  0.2+    090207 349  0.3+  0.4-  
061108 349  0.0   0.3+    080403 467  0.3-  0.0     090208 J24  0.1-  0.7+  
061110 673  0.2+  0.1-    080403 423  0.3-  0.5-    090208 J24  0.4+  0.7+  
061110 673  0.3-  0.4-    080403 415  0.1-  0.0     090208 J24  0.9+  0.3+  
061110 673  0.1+  0.0     080403 415  0.1+  0.0     090212 204  0.0   0.0   
061110 673  0.3+  0.7+    080404 372  0.3+  0.2-    090212 204  0.2-  0.0   
061112 844  1.1-  0.1-    080405 349  0.2-  0.8-    090214 900  0.0   0.3-  
061112 844  0.2-  0.5+    080405 349  0.3-  0.9-    090214 900  0.0   0.4-  
061112 844  0.7+  0.7+    080406 D88  0.3+  0.1-    090214 349  0.1+  0.3+  
061112 844  0.6+  1.5+    080406 D88  0.9+  0.6-    090214 349  0.1-  0.1+  
061112 808  0.1+  0.5-    080406 349  0.1+  1.0-    090214 349  0.1+  0.1+  
061112 808  0.2+  0.5-    080406 349  0.2+  0.9-    090217 704 (1.4-  3.6-) 
061112 808  0.5+  0.3-    080406 352  0.3-  0.1-    090217 704  0.0   0.3-  
061112 808  0.2+  0.2-    080406 352  0.8-  1.1-    090217 704  0.7+  1.5-  
061113 423  0.1+  0.8+    080406 352 (2.2-  1.6-)   090217 704  0.5+  0.5-  
061113 423  0.0   0.7+    080410 467  0.4-  0.1-    090217 704 (2.1+  3.8+) 
061113 423  0.1+  0.6+    080410 467  0.3-  0.1-    090219 B18  0.3+  0.1+  
061114 415  0.1+  0.1+    080410 467  0.3-  0.1-    090219 B18  0.2-  0.4+  
061114 415  0.3-  0.2-    080411 467  0.4-  0.0     090219 B18  0.0   0.6+  
061116 415  0.3+  0.0     080411 467  0.4-  0.0     090219 B18  0.1-  0.4+  
061116 415  0.5+  0.2+    080411 467  0.3-  0.0     090219 B18  0.1-  0.3+  
061117 423  0.0   1.5+    080416 J51  1.2-  0.9-    090219 B18  0.2+  0.7+  
061117 423  0.2+  1.1+    080416 J51  0.1+  0.4-    090219 H45  0.3-  0.1+  
061118 423  0.5-  1.5+    080416 J51  1.0+  0.8-    090219 H45  0.0   0.2+  
061118 423  0.4+  0.6+    080417 467  0.3-  0.1+    090219 H45  0.3-  0.3+  
061119 423  0.2+  0.9+    080417 467  0.3-  0.4+    090219 H45  0.3-  0.3+  
061119 423  0.2-  0.8+    080417 467  0.3-  0.2+    090219 H45  0.3-  0.2+  
061124 415  0.1+  0.1-    080420 900  0.0   0.6-    090221 900  0.0   0.1-  
061124 415  0.2-  0.2-    080420 900  0.8+  0.3+    090221 900  0.1-  0.0   
061125 423  0.7-  0.7+    080422 213  0.1-  0.1-    090222 J51  0.1-  0.1-  
061126 E12  0.3-  1.1+    080422 213  0.2-  0.3-    090222 J51  0.0   0.1-  
061126 E12 (1.0-  2.2+)   080422 J51  0.7-  0.7-    090222 J51  0.0   0.1-  
061126 E12  0.5+  1.3+    080422 213  0.1-  0.3-    090223 J24  0.2+  1.1+  
061126 E12  0.1-  1.6+    080422 J51  0.1-  0.4-    090223 J24  0.1-  1.1+  
061128 423  0.4+  0.8+    080423 808  0.3-  0.5+    090223 J24  0.4+  1.2+  
061128 423  0.2+  0.9+    080423 808  0.1-  0.5+    090225 J75 (1.2-  3.8-) 
061202 844 (0.4-  2.2+)   080423 808  0.3-  0.2+    090225 J75  0.3+  1.8-  
061202 844  1.2+  0.4+    080425 J40  0.1-  0.1+    090225 J75  0.6+  1.5-  
061202 844  0.1+  0.8+    080425 J40  0.3+  0.5-    090226 212  0.0   0.1-  
061203 423  0.1+  0.6+    080425 J40  0.4+  0.3+    090226 212  0.0   0.6-  
061203 423  0.1-  0.8+    080425 J40  0.5-  0.1-    090226 212  0.6+  1.5-  
061206 415  0.5+  0.0     080428 900  0.2+  1.1+    090228 232  0.3-  0.1-  
061206 415  0.3+  0.1-    080428 900  0.4-  0.1-    090228 232  0.5-  0.1-  
061207 808  0.3+  0.2-    080429 367  0.3-  0.1-    090228 232  0.6-  0.0   
061207 808  0.2+  0.6-    080429 367  0.2+  0.1-    090301 215  0.1+  0.2-  
061207 808  1.5-  0.2+    080429 367  0.4-  0.3-    090301 215  0.1-  0.4-  
061207 423  0.2+  0.5+    080429 349  0.3-  0.4-    090301 215  0.4-  0.9-  
061207 423  0.1+  0.9+    080429 349  0.3-  0.3-    090304 H45  0.3-  0.4+  
061207 415  0.1-  0.3+    080429 349  0.1-  0.2-    090304 H45  0.4-  0.4+  
061207 415  0.2-  0.3+    080503 423  0.5-  0.2-    090304 H45  0.3-  0.5+  
061209 844  0.1-  1.3+    080503 423  0.4-  0.3-    090304 H45  0.4-  0.4+  
061209 844  0.3+  0.3+    080503 215  0.3-  0.2+    090304 H45  0.4-  0.4+  
061209 844  0.1+  0.6+    080503 215  0.3-  0.2+    090304 H45  0.3-  0.3+  
061209 844  0.1-  0.6+    080503 215  0.3-  0.1-    090306 987  0.4-  0.9+  
061209 844  0.1-  0.8+    080503 J24  0.1-  0.1-    090306 987  0.3-  1.0+  
061210 423  0.3+  0.7+    080503 J24  0.1-  0.1+    090306 987  0.5-  0.5+  
061210 423  0.3+  0.7+    080503 J24  0.1-  0.1-    090307 232  0.1-  0.3-  
061212 808  0.3-  0.2-    080504 E12  0.3-  0.0     090307 232  0.2-  0.2+  
061212 808  0.2+  0.7-    080504 J24  0.3-  0.1+    090307 232  0.2-  0.6-  
061212 808  0.1+  0.8-    080504 J24  0.3-  0.3+    090308 J27  0.2-  0.0   
061212 808  0.3+  1.3-    080504 J24  0.2-  0.1-    090308 J27  0.0   0.1-  
061217 423  0.1+  0.9+    080506 467  0.3-  0.2+    090308 J27  0.2-  0.2+  
061217 423  0.1+  0.7+    080506 467  0.3-  0.3+    090310 945  0.0   1.1+  
061217 415  0.2+  0.4+    080506 467  0.4-  0.2+    090310 945  0.7-  1.8+  
061217 415  0.0   0.3+    080506 900  0.8-  0.5-    090310 945  0.2-  1.5+  
061218 423  0.2+  0.3+    080506 367  0.1-  0.3-    090310 945  1.4-  1.2+  
061218 423  0.4+  0.3+    080506 367  0.2-  0.2-    090310 945  0.1+  1.6+  
061218 415  0.5+  0.2+    080506 900  0.7-  0.0     090311 900  0.1-  0.2-  
061218 415  0.4+  0.2+    080506 367  0.2-  0.4-    090311 900  0.2-  0.4-  
061221 415  0.2+  0.1-    080506 A77  0.2-  0.3-    090311 349  0.0   0.1+  
061221 415  0.3+  0.0     080506 A77  0.5-  0.0     090311 349  0.1+  0.0   
061221 E12 (0.2+  2.1+)   080506 A77  0.2+  0.4+    090311 349  0.1+  0.0   
061221 E12 (0.0   2.3+)   080507 213  0.5-  0.2+    090313 J38  0.5-  0.1+  
061221 E12  0.2+  1.5+    080507 213  0.4-  0.0     090313 J38  0.2-  0.0   
061221 E12  0.0   1.7+    080507 213  0.3-  0.3+    090313 J38  0.3-  0.1+  
061222 467  0.0   0.2+    080508 415  0.6-  0.4+    090313 945  0.0   0.9+  
061222 467  0.1+  0.1+    080508 415  0.3-  0.2+    090313 945  0.2+  0.7+  
061225 423  0.1+  0.5+    080508 235  0.4-  0.3-    090313 945  0.0   0.8+  
061225 423  0.4+  0.6+    080508 J24  0.5-  0.6+    090313 945  0.5+  0.7+  
061226 415  0.3+  0.1+    080508 J24  0.5-  0.5+    090313 945  0.0   1.1+  
061226 415  0.1+  0.2+    080508 J24  0.4-  0.1-    090315 J40  0.6-  0.1+  
061227 D88  0.8+  1.1+    080510 467  0.5-  0.4+    090315 J31  0.3-  0.5+  
061227 D88  0.7-  1.3+    080510 467  0.4-  0.4+    090315 J40  0.4-  0.4+  
061227 D88  0.9-  0.8+    080510 467  0.4-  0.4+    090315 J40  0.3-  0.4+  
061228 423  0.4+  1.0+    080510 J47  0.5-  0.4-    090316 400  0.2+  0.5+  
061228 423  0.3+  1.0+    080510 J47  0.3-  0.0     090316 400  0.5+  0.9+  
061229 349  0.1+  0.1+    080510 J47  0.4-  0.0     090316 400  0.3-  0.4+  
061229 349  0.6+  0.4+    080511 367  0.0   0.6-    090317 J38 (2.1+  1.7+) 
2007/                     080511 367  0.1+  0.2-    090317 J38  1.5+  0.6-  
070104 423  0.3+  1.0+    080511 367  0.1-  0.4-    090317 J38  1.2+  1.8-  
070104 423  0.4+  1.2+    080511 945  1.2-  0.8+    090317 945  0.2-  0.4+  
070104 423  0.4+  1.4+    080511 945  0.6-  0.3+    090317 945  0.4-  0.5+  
070106 322  0.4+  0.6+    080511 945  1.1-  0.0     090317 945  0.4-  0.3+  
070106 322  0.3-  0.6+    080511 945  0.8-  0.1-    090317 945  0.2-  0.4+  
070106 322  0.0   0.8+    080511 945  0.2+  0.3+    090317 945  0.1-  0.1+  
070108 E12  0.4+  0.6+    080512 H47  0.3+  0.4+    090318 J38  0.2-  0.3+  
070110 415  0.2+  0.2-    080512 H47 (1.7+  2.9-)   090318 J38  0.3-  0.3+  
070110 415  0.0   0.2-    080513 808  0.1+  1.3+    090318 J38  0.2-  0.3+  
070111 415  0.3+  0.1+    080513 808  0.1+  1.2+    090318 235  0.4-  0.2+  
070111 415  0.2+  0.2+    080513 808  0.0   1.2+    090319 945  0.1+  0.5+  
070114 423  0.3+  0.5+    080514 467  0.5-  0.2+    090319 945  0.1-  0.2+  
070114 423  0.5+  0.3+    080514 467  0.6-  0.6+    090319 945  0.4+  0.5+  
070114 423  0.6+  0.4+    080514 467  0.5-  0.3+    090319 945  1.1+  0.6+  
070118 J76  0.3+  0.1-    080514 367  0.3+  0.1-    090319 945  0.0   0.2-  
070118 J76  0.3+  0.3+    080514 367  0.4+  0.1+    090320 J38  0.2-  0.3+  
070118 J76  0.3-  0.6+    080514 367  0.0   0.1-    090320 J38  0.1-  0.3+  
070119 E12  0.1+  0.2+    080514 808  0.3+  1.4+    090320 J38  0.0   0.4+  
070120 J76  0.3+  0.3+    080514 808  0.0   1.3+    090320 945  0.1-  0.6+  
070120 J76  0.5+  0.3+    080514 808  0.3+  0.9+    090320 945  0.1-  0.7+  
070120 J76  0.3+  0.4+    080515 900  0.2-  0.2+    090320 945  0.2-  0.5+  
070124 J76  0.2+  0.6-    080515 900  0.4-  0.3+    090320 945  0.3-  0.5+  
070124 J76  0.1+  0.4+    080515 808  0.3+  1.3+    090320 945  0.3-  0.3+  
070124 J76  0.2-  0.1+    080515 808  0.3+  1.1+    090320 900  0.2-  0.2-  
070126 415  0.4+  0.0     080515 808  0.1-  1.0+    090320 900  0.0   0.2-  
070126 415  0.5+  0.2-    080516 423  0.2-  0.0     090320 D80  0.0   0.3-  
070128 423  0.3+  0.4+    080516 423  0.3-  0.0     090320 D80  0.2+  0.2-  
070128 423  0.5+  0.6+    080517 J47  0.4-  0.1+    090320 D80  1.8-  1.0+  
070129 E12  0.5+  0.6+    080517 J47  0.4-  0.0     090320 235  0.2-  0.0   
070129 415  0.1+  0.1-    080517 J47  0.6-  0.0     090321 939  0.3-  0.3-  
070129 415  0.2+  0.0     080518 J47  0.6-  0.1+    090321 939  0.4-  0.3-  
070129 213  0.8+  0.2-    080518 J47  0.5-  0.1+    090321 939  0.3-  0.4-  
070129 213  0.6+  0.2-    080518 J47  0.6-  0.2+    090322 945  0.2-  0.5+  
070129 213  0.5+  0.3-    080519 H47  0.0   0.6+    090322 945  0.5+  0.4+  
070204 423  0.5+  0.4+    080519 H47  1.3-  0.6-    090322 945  0.1+  0.5+  
070204 423  0.3+  0.5+    080519 945  1.5+  1.1-    090322 945  0.2+  0.1+  
070204 D88  0.3+  0.8+    080519 945  0.2+  0.0     090322 945  0.3+  0.5+  
070204 D88  0.2-  0.4+    080519 945  0.2-  0.0     090323 B74  0.2-  0.8+  
070204 D88  0.3-  0.8+    080519 945  0.1+  0.4-    090323 B74  0.2-  0.8+  
070208 322  0.0   0.1+    080519 945  0.7-  0.1-    090323 B74  0.2-  0.6+  
070208 322  0.5-  0.1-    080519 J38  0.2+  0.2+    090323 J38  0.3-  0.1+  
070208 322  0.2+  0.1-    080519 J38  0.7+  0.1+    090323 J38  0.0   0.0   
070211 349  1.2+  0.2+    080519 J38  0.2+  0.5+    090323 J38  0.5+  0.2-  
070211 349  0.6+  0.0     080520 367  0.0   0.3-    090323 204  0.4-  0.3+  
070214 423  0.6+  0.5+    080520 367  0.1-  0.6-    090323 204  0.8-  0.6+  
070214 423  0.4+  0.6+    080520 367  0.0   0.3-    090323 B40  0.2-  0.5+  
070215 423  0.5+  0.2+    080520 900  0.2-  0.2+    090325 J40  0.6-  0.4+  
070215 423  0.4+  0.4+    080520 900  0.5-  0.6+    090325 J40  0.1+  0.9+  
070220 423  0.3+  1.1+    080520 945  0.6-  0.3+    090325 J40  0.0   1.5+  
070220 423  0.4+  1.1+    080520 945  1.8-  0.0     090325 A77  0.2-  0.2+  
070223 423  0.7+  0.7+    080520 945  1.7+  1.1+    090325 A77  0.2-  0.7+  
070223 423  0.5+  0.6+    080520 945  1.4-  1.7+    090326 J38  0.3-  0.4+  
070224 349  0.4+  1.2+    080520 945  0.8-  1.1+    090326 J38  0.4-  0.4+  
070224 349 (1.0+  2.0+)   080521 213  0.9-  0.2-    090326 J38  0.2-  0.3+  
070301 D88  0.6-  0.7+    080521 213  0.5-  0.1+    090326 J40  0.1-  0.9+  
070301 D88  0.4-  0.2-    080521 213  0.6-  0.5-    090326 J40  0.2-  0.9+  
070301 D88  0.0   0.5-    080522 467  0.5-  0.3+    090326 945  0.3-  0.7+  
070308 467  0.1+  0.1+    080522 467  0.6-  0.3+    090326 945  0.2-  0.7+  
070308 467  0.3+  0.7+    080522 467  0.5-  0.3+    090326 945  0.2-  0.4+  
070309 467  0.2+  0.4+    080524 J47  0.2+  0.3+    090326 945  0.2-  0.7+  
070309 467  0.2+  0.4+    080524 J47  0.2+  0.2+    090326 945  0.1-  0.7+  
070309 467  0.2-  0.2+    080524 J47  0.2-  0.2+    090326 J40  0.0   1.2+  
070309 423  0.5+  0.5+    080526 367  0.1-  0.2-    090326 379  1.0-  0.8+  
070309 423  0.6+  0.7+    080526 367  0.1+  0.5-    090326 379  1.3+  0.7-  
070309 415  0.2+  0.4+    080526 367  0.1+  0.5-    090326 379  0.8-  1.0+  
070309 415  0.4+  0.8+    080526 J47  0.2+  0.1+    090326 379  0.4-  0.9+  
070311 415  0.2+  0.4+    080526 J47  0.1-  0.1-    090326 379  0.5-  0.8+  
070311 415  0.3+  0.0     080526 J47  0.2-  0.4-    090327 379  0.1+  0.5+  
070313 415  0.2+  0.2+    080528 467  0.3-  0.1+    090327 379  1.1-  0.4+  
070313 E12  0.2+  0.8+    080528 467  0.6-  0.2+    090327 379  0.4-  1.0+  
070313 415  0.1+  0.2+    080528 467  0.4-  0.5+    090329 467  0.4-  0.7+  
070315 423  0.5+  0.8+    080528 J47  0.7-  0.2-    090329 467  0.4-  0.2+  
070315 423  0.5+  0.7+    080528 J47  0.5-  0.4+    090329 467  0.6-  0.5+  
070315 423  0.2+  0.6+    080528 J47  0.4-  0.5+    090330 703  1.0-  1.0+  
070315 423  0.4+  0.8+    080529 J47  0.5-  0.3-    090330 703  0.7-  0.2+  
070320 467  0.0   0.7+    080529 J47  0.4-  0.5-    090330 703  0.4-  0.2+  
070320 467  0.2+  0.7+    080529 J47  0.3-  0.5-    090330 703  0.7-  0.9+  
070320 467  0.1+  0.3+    080530 J47  0.6-  0.8-    090330 379  0.9-  1.0+  
070327 423  0.2+  0.7+    080530 J47  0.2-  0.4-    090330 379  0.9-  0.8+  
070327 423  0.4+  0.6+    080530 J47  0.7-  0.2-    090330 379  0.9-  0.4+  
070327 415  0.2+  1.1+    080530 J47  0.6-  0.9-    090330 379  0.8-  0.0   
070327 415  0.2-  0.7+    080530 J47  0.7-  0.9-    090330 379  1.0-  0.0   
070407 415  0.2+  0.5+    080531 367  0.3-  0.3-    090331 945  0.7-  1.6+  
070407 415  0.3+  0.6+    080531 367  0.1-  0.0     090331 945  0.8-  0.8+  
070409 415  0.3-  0.6+    080531 367  0.1-  0.0     090331 945  0.4-  1.2+  
070409 415  0.3+  0.3+    080531 J47  0.0   0.1+    090331 945  0.5-  0.7+  
070411 415  0.3+  0.3+    080531 J47  0.1+  0.3+    090331 945  0.3+  1.3+  
070411 415  0.3+  0.4+    080531 J47  0.0   0.1+    090401 945  0.1+  0.9+  
070511 E12  0.2+  0.7+    080531 J47  0.1-  0.0     090401 945  0.1-  0.9+  
070526 415  0.0   0.8+    080601 J47  0.2-  0.3-    090401 945  0.1-  0.6+  
070526 415  0.3+  0.6+    080601 J47  0.2+  0.3+    090401 945  0.2+  1.5+  
071001 423  1.8+  0.1-    080601 J47  0.1+  0.0     090401 510  0.2+  0.8+  
071001 423  0.0   1.4+    080606 I31  1.5+  1.9-    090401 945  0.2-  1.2+  
071002 415  0.5+  0.3+    080606 I31  0.4+  0.2+    090401 510  0.0   0.7+  
071002 415  0.5+  0.6+    080606 I31  0.7+  1.0-    090401 510  0.3-  1.2+  
071002 423  0.9+  0.8+    080606 I31  1.0+  0.6+    090401 H45  0.6-  0.7+  
071002 423  0.9+  0.7+    080606 I31 (0.4-  3.4-)   090401 H45  0.5-  0.7+  
071019 415  0.9+  0.1+    080606 415  0.2-  0.3+    090401 H45  0.5-  0.6+  
071019 415  0.5+  0.2+    080606 415  0.3-  0.7+    090401 H45  0.7-  0.6+  
071113 415  0.8+  0.1+    080606 J47  0.5+  0.5+    090401 H45  0.7-  0.7+  
071113 415  0.5+  0.1-    080606 J47  0.4+  0.1+    090401 H45  0.6-  0.6+  
071204 415  0.8+  0.0     080606 J47  0.1+  0.2+    090402 900  0.4-  0.3+  
071204 415  0.7+  0.1-    080606 J47  0.1+  0.0     090402 900  0.4-  0.1+  
071207 423  0.7+  0.1-    080606 J47  0.1+  0.0     090403 510  0.2+  0.7+  
071207 423  0.9+  0.0     080606 J47  0.5+  0.1+    090403 510  0.7-  0.8+  
071208 834  0.6+  0.2-    080610 808  0.1-  0.7+    090403 510  0.3-  0.7+  
071208 834  1.0+  0.1-    080610 808  0.2+  0.8+    090404 H10  0.7-  0.6+  
071208 834  0.3+  0.2+    080610 808  0.5-  0.4+    090404 H10  0.7-  0.4+  
071213 423  1.2+  0.7+    080612 900  0.2+  0.6-    090404 H10  0.7-  0.6+  
071213 423  1.1+  0.3-    080612 900  1.7+  0.4+    090405 J52  0.5-  0.3+  
071214 423  0.8+  0.3-    080616 808  0.1-  0.3+    090405 J52  0.3-  0.4+  
071214 423  0.7+  0.3-    080616 808  0.0   0.4+    090405 J52  0.5-  0.3+  
071220 834  0.7+  0.5-    080616 808  0.1-  0.5+    090405 D93  0.2-  1.5+  
071220 834  0.3+  0.5-    080620 J70  0.2-  0.6+    090405 D93  1.0-  1.0+  
071220 834  0.5+  0.6-    080620 J70  1.3+  0.3+    090405 D93  1.5-  1.4+  
071220 834  0.4+  0.4-    080620 J70  0.1-  0.5+    090405 D81  0.6+  0.3+  
071220 834  0.6+  0.4-    080620 J70  1.3-  0.5+    090405 D81  0.2+  0.3+  
071228 I77  0.8+  0.5-    080620 J70  1.3+  0.1-    090405 D81  0.2+  0.2+  
071228 I77  0.3+  0.2-    080620 J70  0.2-  0.2+    090405 D81  0.0   0.2+  
071228 I77  0.4+  0.1+    080620 J70  0.6-  0.5-    090405 J38  0.3-  0.5+  
071228 I77  1.0+  0.5-    080620 J70  0.5-  0.9+    090405 J38  0.1-  0.8+  
071228 423  0.9+  0.1-    080620 J70  0.9+  0.3+    090406 J38  0.4+  0.5+  
071228 423  0.8+  0.1-    080622 213  0.4+  0.5+    090406 379  1.1-  0.3+  
071228 415  0.5+  0.2-    080622 213  0.7+  0.2-    090406 379  1.1-  0.4+  
071228 415  0.5+  0.4-    080622 213  0.1+  0.1+    090406 379  0.9-  0.4+  
071229 415  0.6+  0.3-    080624 J47  0.7+  0.5+    090407 379  0.4-  0.6+  
071229 415  0.6+  0.2-    080624 J47  0.8+  0.1+    090407 379  0.4-  0.9+  
071230 834  0.5+  0.6-    080624 J47  0.4+  0.9+    090407 379  0.3-  1.0+  
071230 834  0.8+  0.7-    080625 E12  0.2-  0.1-    090407 379  0.7-  0.7+  
071230 834  0.6+  0.5-    080701 D81  0.1+  1.3-    090407 349  0.5-  0.7+  
071230 834  0.6+  0.5-    080701 D81  0.0   1.4-    090407 349  0.4-  0.6+  
071230 834  0.7+  0.7-    080701 D81  0.0   1.7-    090408 945  0.8-  0.8+  
071231 415  0.7+  0.3-    080705 415  0.2-  0.3+    090408 945  0.7-  0.9+  
071231 415  0.7+  0.3-    080705 415  0.0   0.2+    090408 945  0.5-  0.2+  
2008/                     080710 900  0.7+  0.4+    090408 945  0.6-  0.8+  
080101 423  0.8+  0.2-    080710 900  0.3+  0.9+    090408 945  0.8-  1.2+  
080101 423  0.9+  0.4-    080719 900  0.7-  0.3-    090410 B59  0.8-  0.8+  
080102 467  0.8+  0.1-    080719 900  0.4-  0.3-    090410 B59  0.6-  0.9+  
080102 467  0.8+  0.2-    080719 367  0.8+  0.5-    090410 B59  0.5-  0.6+  
080102 467  0.7+  0.1-    080719 367  0.9+  0.2+    090411 196  0.2-  0.2+  
080110 423  0.7+  0.2-    080726 900  0.1-  0.6-    090411 196  0.0   0.6+  
080110 423  0.6+  0.2-    080726 900  0.5+  0.2+    090412 379  0.7-  1.0+  
080112 467  0.4+  0.3-    080730 900  0.3+  0.6+    090412 379  0.6-  1.1+  
080112 467  0.5+  0.2-    080730 900  0.3+  0.2+    090412 379  0.7-  0.9+  
080112 467  0.6+  0.4-    081130 D81 (0.2-  2.2-)   090412 379  0.9-  0.6+  
080115 415  0.5+  0.4-    081130 D81  0.3-  1.9-    090415 379  0.6-  0.8+  
080115 415  0.7+  0.3-    081130 D81  0.1-  1.2-    090415 379  0.3-  0.9+  
080117 834  0.9+  0.3-    081130 D81  0.3+  0.6-    090415 379  0.6-  0.7+  
080117 834  0.4+  0.1+    081130 D80  0.3-  0.2+                            
080120 834  0.4+  0.5-    081130 D80  0.4+  0.5-                            
NAKANO
         **** Don't distribute anyone except personal use only ****
                (C) Copyright 2009 OAA/ComputingSection
write mail from CFAD0::NAKANO on 2009-04-17 06:28:28(JST).
 
